Regional Weather Roundup
Issued by NWS Northern Indiana

Home | Current Version | Previous Version | Graphics & Text | Print | Product List | Glossary On
Versions: 1 2 3 4 5 6 7 8 9 10 11 12 13 14 15 16 17 18 19 20 21 22 23 24 25 26 27 28 29 30 31 32 33 34 35 36 37 38 39 40 41 42 43 44 45 46 47 48 49 50
033
ASUS43 KIWX 252200
RWRIWX

KIWX WEATHER ROUNDUP
NATIONAL WEATHER SERVICE NORTHERN INDIANA
600 PM EDT MON JUL 25 2016

NOTE: "FAIR" INDICATES FEW OR NO CLOUDS BELOW 12,000 FEET WITH NO
SIGNIFICANT WEATHER AND/OR OBSTRUCTIONS TO VISIBILITY.

* THESE STATIONS ARE NOT UNDER NWS QUALITY CONTROL. THEY ALSO MAY NOT
  REPORT WEATHER SUCH AS PRECIPITATION OR FOG.

INZ001>027-252300-
NORTHERN INDIANA

CITY           SKY/WX    TMP DP  RH WIND       PRES   REMARKS
GARY*          PTSUNNY   82  63  51 NE7       29.99S
KNOX*          MOSUNNY   82  48  30 N7        29.99F
SOUTH BEND     MOSUNNY   81  63  54 NW12      30.00S
GOSHEN         MOSUNNY   85  60  42 NW10      29.98S
MONTICELLO*    CLOUDY    82  67  60 N3        29.99S
ANGOLA*        SUNNY     86  81  84 W9        29.97S HX 102
FORT WAYNE     PTSUNNY   85  68  56 NW8       29.97F
PERU/GRISSOM   PTSUNNY   83  70  63 NW7       29.98S

$$
INZ028>050-252300-
CENTRAL INDIANA

CITY           SKY/WX    TMP DP  RH WIND       PRES   REMARKS
LAFAYETTE      CLOUDY    83  71  67 N7        29.99S
KOKOMO*        MOSUNNY   84  70  61 NW8       29.99S
MUNCIE*        CLOUDY    86  74  67 NW8       29.98F
INDIANAPOLIS   PTSUNNY   88  71  57 NW10      29.99S

$$
MIZ043>046-050>051-056>058-064>065-071>073-077>080-252300-
SOUTHWEST LOWER MICHIGAN

CITY           SKY/WX    TMP DP  RH WIND       PRES   REMARKS
BATTLE CREEK   MOSUNNY   82  63  52 NW14      29.98S
BENTON HARBOR  SUNNY     80  63  55 NW7       30.00S
COLDWATER*     MOSUNNY   85  64  49 W10       29.97R
HILLSDALE*     MOSUNNY   83  65  54 NW7       29.97S
HOLLAND        SUNNY     79  63  57 W9        30.00S
GRAND RAPIDS   MOSUNNY   85  59  41 W12G21    29.96S
KALAMAZOO      MOSUNNY   83  61  47 NW10G21   29.98R
STURGIS*       SUNNY     83  64  52 NW8       29.98R
THREE RIVERS*  FAIR      83  62  48 W12       29.98S

$$
OHZ001>008-015>018-024>025-252300-
NORTHWEST OHIO

CITY           SKY/WX    TMP DP  RH WIND       PRES   REMARKS
DEFIANCE       SUNNY     90  64  42 NW10      29.95R
FINDLAY        CLOUDY    89  66  46 W9        29.93F
TOLEDO EXPRESS SUNNY     86  68  54 W12       29.93S
TOLEDO METCALF SUNNY     90  66  45 W12       29.93S
LIMA           PTSUNNY   85  72  65 W9        29.96S

$$
AND FOR LAKE MICHIGAN COASTAL AND OPEN LAKE BUOY OBSERVATIONS

STATION/POSITION TEMP    WIND        PRES    VSBY  WAVE
                 AIR SEA DIR/SP/G                  HT/PER
                 (F)     (DEG/KT/KT) (MB)    (MI)  (FT/S)
CALUMET HARBOR    76      70/  7/  9 1015.0F
MICHIGAN CITY     75      20/  5/  5   N/A
BURNS HARBOR      78      60/  7/  9 1015.9F
SAINT JOSEPH      76     320/  4/  5 1016.6S
SOUTH LAKE BUOY   76 76  190/  6/  6 1015.0          1
4 MI NW BRIDGMAN  75 77  320/  4/  6 1015.6F         1/ 4
MICHIGAN CITY     75 77  100/  4/  4   N/A           1/ 3

$$
&&




USA.gov is the U.S. government's official web portal to all federal, state and local government web resources and services.